Regional Weather Roundup
Issued by NWS

Home | Current Version | Previous Version | Graphics & Text | Print | Product List | Glossary On
Versions: 1 2 3 4 5 6 7 8 9 10 11 12 13 14 15 16 17 18 19 20 21 22 23 24 25 26 27 28 29 30 31 32 33 34 35 36 37 38 39 40 41 42 43 44 45 46 47 48 49 50
000
ASUS45 KBOI 250610
RWRID
WEATHER ROUNDUP FOR IDAHO
NATIONAL WEATHER SERVICE BOISE ID
1200 AM MDT SAT APR 25 2015

NOTE: "FAIR" INDICATES FEW OR NO CLOUDS BELOW 12000 FEET
WITH NO SIGNIFICANT WEATHER AND/OR OBSTRUCTIONS TO VISIBILITY

IDZ012-014-250700-
SOUTHWEST IDAHO


CITY           SKY/WX    TMP DP  RH WIND       PRES   REMARKS
BOISE          CLOUDY    49  31  49 N7        29.77F
CALDWELL       CLOUDY    50  30  46 NW7       29.80R
MOUNTAIN HOME  CLOUDY    48  32  54 W9        29.78R
$$

IDZ016-017-250700-
SOUTHCENTRAL IDAHO


CITY           SKY/WX    TMP DP  RH WIND       PRES   REMARKS
BURLEY         CLOUDY    44  32  62 SW13      29.77R
JEROME         MOCLDY    42  33  70 S10       29.78S
TWIN FALLS     MOCLDY    44  31  60 S14       29.78S
$$

IDZ019>023-250700-
SOUTHEAST IDAHO


CITY           SKY/WX    TMP DP  RH WIND       PRES   REMARKS
IDAHO FALLS    LGT RAIN  46  36  68 SW16      29.73R
POCATELLO      CLOUDY    45  37  73 SW20      29.77R
REXBURG        LGT RAIN  41  37  86 W9        29.71R
$$

IDZ006-010-011-018-031-032-250700-
CENTRAL IDAHO MOUNTAINS


CITY           SKY/WX    TMP DP  RH WIND       PRES   REMARKS
MCCALL         MOCLDY    34  27  75 CALM      29.77R
HAILEY         CLOUDY    41  34  75 SE8       29.74R
STANLEY          N/A     34  26  72 CALM      29.77R
SALMON         CLOUDY    41  27  56 N3        29.76S
CHALLIS        CLOUDY    39  30  70 NW9       29.75R WCI  33
$$

IDZ002-004-006-007-026-250700-
NORTHERN IDAHO


CITY           SKY/WX    TMP DP  RH WIND       PRES   REMARKS
LEWISTON       PTCLDY    43  31  62 S5        29.82S
LOWELL           N/A     40  38  93 N3        29.87R
COEUR D`ALENE  PTCLDY    39  32  75 CALM      29.82S
MULLAN PASS    CLEAR     29  20  69 W5        29.78R WCI  24
$$



USA.gov is the U.S. government's official web portal to all federal, state and local government web resources and services.